Theta_e
313 314 312 308 304 310 304 306 302 305 310 319 321 320 320 323 327 327 333 338 343 344 347 348 350 352 356 362 365 366 367 367
312 314 313 310 311 303 305 298 297 302 306 307 319 318 322 321 322 329 330 334 343 344 346 350 350 355 358 364 365 366 367 366
312 309 307 308 306 306 306 304 300 299 303 314 320 321 321 322 326 329 330 332 340 345 347 351 351 354 357 363 366 366 364 364
308 314 315 313 308 308 303 301 303 303 303 315 319 320 322 324 325 329 333 333 336 345 347 350 350 353 355 362 364 364 362 363
304 310 314 311 313 313 309 307 305 300 303 317 318 319 323 323 324 334 336 336 339 340 346 350 351 353 353 360 361 362 361 361
300 304 309 307 310 312 311 304 304 304 307 312 314 316 323 326 331 331 335 339 341 341 348 349 353 356 357 358 362 362 360 359
309 310 310 309 308 310 309 309 306 308 309 313 315 316 322 325 328 330 333 334 337 339 343 352 355 358 359 359 361 361 361 360
305 308 309 307 308 308 309 310 309 310 310 317 318 321 323 324 328 333 335 336 340 342 348 351 355 360 360 360 361 363 363 360
299 306 307 303 308 309 310 312 310 306 312 319 317 320 323 327 332 335 338 340 341 340 342 348 351 359 361 362 365 363 363 362
300 304 296 307 314 313 311 312 314 315 318 321 321 324 332 339 340 341 343 344 347 344 342 344 349 356 363 362 366 364 363 362
298 299 305 308 311 312 312 312 319 317 322 315 318 321 331 334 339 346 347 348 345 343 344 350 350 358 361 359 364 364 362 357
304 300 298 309 314 318 318 307 323 326 321 317 314 311 322 330 329 345 347 351 353 352 346 351 365 360 360 359 361 360 359 355
305 303 306 314 316 319 306 311 325 326 326 322 320 327 331 332 337 347 346 348 352 356 354 355 359 361 359 360 358 360 355 349
306 305 302 322 320 312 321 325 325 326 327 324 325 326 329 331 334 347 345 346 349 351 354 356 360 364 360 359 362 355 346 346
308 308 320 319 320 321 322 323 325 325 327 325 323 326 327 329 330 341 346 346 347 346 348 354 355 360 361 354 349 345 344 344
312 313 315 316 318 320 320 319 322 325 325 322 320 321 322 324 325 331 346 345 345 345 344 345 348 349 348 345 344 343 343 341
310 314 315 315 317 319 317 317 319 321 324 320 319 319 319 322 328 329 339 345 346 344 344 344 345 343 343 343 344 343 342 338
306 313 313 316 315 316 315 314 315 315 316 321 318 320 319 321 327 331 333 341 346 346 345 343 343 341 342 342 344 340 336 333
311 312 311 313 315 315 313 313 313 313 314 314 316 317 320 320 326 329 335 330 336 348 351 346 342 339 339 341 341 335 333 332
Wind_Speed
7 10 11 13 16 19 22 19 14 15 21 9 15 21 41 3 16 13 17 20 23 20 18 19 18 19 18 18 17 17 16 13
14 5 9 16 16 15 12 17 17 15 19 15 12 14 11 8 8 14 8 11 22 21 18 18 18 17 17 20 19 18 16 14
13 14 10 13 14 14 17 14 12 11 12 15 12 4 8 6 13 9 9 6 12 19 19 17 19 19 19 19 18 17 16 16
18 15 11 16 16 16 11 17 15 15 15 18 7 3 4 6 7 10 10 4 10 18 19 18 18 17 19 19 17 17 17 16
11 6 19 12 15 20 19 16 14 13 12 12 9 7 8 7 4 10 9 6 4 10 19 18 18 16 17 18 17 17 17 17
14 21 14 10 16 18 20 10 13 14 15 15 15 14 12 8 10 8 6 5 6 7 12 17 18 16 16 17 18 17 17 16
17 17 18 20 17 21 20 18 16 19 18 16 16 16 8 10 9 9 7 7 9 9 9 14 14 15 15 17 17 17 15 15
15 18 19 18 17 19 21 23 23 20 20 16 13 12 6 5 7 10 10 10 12 11 9 14 15 12 14 14 16 15 14 16
14 17 17 15 16 17 18 17 21 18 20 17 5 6 4 4 5 6 8 9 9 14 10 10 16 13 13 12 13 15 15 15
13 15 17 16 14 15 19 19 14 16 14 26 20 8 10 15 12 9 8 9 8 10 13 13 17 18 13 14 11 14 16 15
12 13 17 20 15 13 12 11 15 16 19 22 26 29 14 21 22 12 14 13 11 8 10 12 14 16 16 15 13 14 15 17
11 15 18 18 19 12 8 12 13 16 14 9 17 9 10 16 12 14 15 16 18 18 10 6 5 16 17 17 15 14 13 15
12 14 14 12 15 13 7 5 9 11 11 10 4 6 7 10 6 9 11 14 15 18 14 5 7 15 15 14 15 15 14 14
13 15 17 12 11 10 7 7 10 8 8 7 9 14 12 11 10 9 9 11 13 12 14 16 7 10 13 12 11 13 15 14
14 14 14 12 14 14 18 13 7 9 2 4 8 8 9 10 16 7 8 8 8 9 10 9 12 9 6 6 14 15 14 13
14 15 18 18 17 14 16 16 14 9 6 9 11 12 13 8 13 13 5 6 5 7 7 6 5 5 6 8 11 14 13 11
17 16 17 18 16 11 11 14 15 17 7 8 11 13 12 12 9 12 6 2 3 4 6 7 3 2 6 10 11 11 10 12
14 15 16 14 16 19 17 14 15 16 16 13 12 13 11 12 10 8 12 6 1 2 6 5 5 4 7 8 10 10 9 10
14 16 19 19 18 17 17 17 17 19 18 16 15 14 12 11 12 9 8 6 10 2 7 7 8 6 6 5 6 11 11 11
Wind_Direction
251 216 216 252 259 281 287 285 273 283 292 202 94 72 294 310 162 164 174 168 174 186 180 172 178 172 169 168 174 179 185 184
310 277 243 273 291 288 268 262 271 287 293 300 145 189 236 194 118 131 143 165 171 177 185 171 176 166 169 165 175 178 184 187
273 250 270 250 224 244 270 281 291 286 257 249 43 80 347 64 65 98 134 168 181 175 179 172 173 167 169 168 171 174 185 186
300 309 271 232 259 272 247 237 260 279 291 302 6 315 116 294 67 78 19 165 194 174 175 171 177 173 172 169 172 177 185 183
296 33 349 354 348 332 284 294 288 283 273 289 342 29 17 358 22 108 99 333 238 201 174 176 180 180 176 169 175 183 187 180
287 309 319 317 304 305 315 290 289 281 295 314 331 355 17 66 71 55 51 11 291 282 179 179 180 177 174 172 175 183 186 180
296 310 309 302 294 287 288 294 297 301 306 306 315 329 47 38 22 27 13 350 314 229 251 172 171 167 171 174 177 183 187 179
292 283 270 269 269 272 282 286 285 280 281 284 286 291 60 9 27 24 359 347 323 305 221 174 167 167 173 177 177 182 185 179
288 294 297 286 282 274 281 257 264 275 279 327 255 288 352 326 69 41 346 334 319 306 270 206 174 172 171 179 174 181 177 173
272 280 274 277 288 309 304 297 288 295 342 23 352 315 57 52 41 11 345 328 304 293 285 246 186 172 161 177 184 180 173 157
268 267 276 270 267 281 343 328 331 341 45 25 8 359 43 28 7 22 345 329 312 273 275 297 183 159 161 171 184 173 169 160
247 266 278 298 310 332 349 295 15 41 72 89 62 358 334 28 359 358 349 339 347 328 298 269 141 147 158 169 170 174 162 166
275 265 262 266 286 314 275 355 2 35 40 121 165 290 341 29 13 45 359 338 340 335 340 284 147 148 163 169 170 166 150 156
270 261 267 16 335 312 359 343 360 8 46 347 325 319 3 357 356 59 11 358 351 353 353 357 6 138 162 164 152 132 138 153
279 287 304 321 328 340 339 333 311 316 37 310 318 318 341 321 315 8 39 11 3 353 348 352 1 3 129 106 129 137 150 162
295 287 289 299 311 321 311 320 324 302 1 337 321 320 315 333 315 316 48 28 20 341 331 335 344 352 111 141 147 156 159 155
294 294 297 289 287 299 334 336 327 341 300 309 319 309 319 316 315 316 317 359 36 18 319 306 279 196 165 163 165 167 159 149
282 300 299 301 305 310 307 302 302 303 303 304 293 294 299 300 300 303 305 321 220 88 271 263 235 200 187 192 176 163 145 148
296 313 307 308 301 281 286 290 294 297 295 296 290 286 288 280 287 283 285 296 318 270 270 221 219 199 188 181 171 152 146 148